Terug naar catalogus

CZ-3B DEB

LostHEO
NORAD 40846·DEBRIS·🇨🇳 China

Gelanceerd Dec 19, 2011 vanaf Xichang Satellite Launch Center

Loading…

Volgende Passages (komende 24 uur)

TLE

VerouderdSource: Space-Track

Epoch: Dec 13, 2017, 06:18 UTC

1 40846U 11077AB  17347.26307043  .00000135  00000-0  18476-2 0  9992
2 40846  23.1620  77.8001 7602756 177.9318  13.2092  1.82303605 18970

Volg CZ-3B DEB in realtime met AllMySat

Download on the App Store